[[{"header":{"parameterUnit":"m.s-1","parameterCategory":2,"la1":30.2991,"la2":30.254,"lo1":-89.0895,"lo2":-89.0444,"dy":0.0017,"dx":0.0017,"nx":28,"ny":28,"refTime":"2024-03-18T03:00:00:Z","depth":"0","parameterNumber":2,"parameterNumberName":"U-component_of_CURRENTS"},"data":[0,0,0,0,0,0,0,0,0,0,0,0,0,0,0,0,0,0,0,0,0,0,0,0,0,0,0,0,0,0,0,0,0,0,0,0,0,0,0,0,0,0,0,0,0,0,0,0,0,0,0,0,0,0,0,0,0,0,-0.2065,-0.2065,0,-0.209,-0.209,-0.209,-0.2053,-0.2052,-0.2051,-0.205,-0.2029,-0.2029,-0.203,0,0,0,0,0,0,0,0,0,0,0,0,0,-0.1999,-0.2,-0.2065,-0.2065,-0.2066,-0.209,-0.209,-0.209,-0.2053,-0.2052,-0.205,-0.2049,-0.2029,-0.2029,-0.203,0,0,0,0,0,0,0,0,0,0,0,0,0,-0.2024,-0.2,-0.2064,-0.2052,-0.2051,-0.209,-0.209,-0.209,-0.2053,-0.2052,-0.205,-0.2049,-0.2029,-0.2029,-0.203,-0.2067,0,0,-0.2032,-0.2032,0,0,0,0,0,0,0,0,-0.2022,-0.2026,-0.2053,-0.2053,-0.2052,-0.2069,-0.2059,-0.2081,-0.2054,-0.205,-0.205,-0.2048,-0.2041,-0.2041,-0.2046,-0.2066,-0.2065,-0.2032,-0.2033,-0.2033,-0.2033,0,0,0,0,0,0,0,-0.202,-0.2025,-0.2072,-0.2054,-0.2053,-0.205,-0.2051,-0.2063,-0.2051,-0.205,-0.2048,-0.2055,-0.204,-0.2045,-0.2045,-0.2064,-0.2032,-0.2033,-0.2033,-0.2033,-0.2097,-0.2098,0,0,0,0,0,0,-0.2024,-0.2023,-0.2071,-0.2073,-0.2036,-0.2053,-0.2054,-0.2063,-0.2052,-0.205,-0.2057,-0.2054,-0.2045,-0.2044,-0.2044,-0.2074,-0.2033,-0.2034,-0.2034,-0.2096,-0.2097,-0.2098,0,0,0,0,0,0,-0.2022,-0.2028,-0.207,-0.205,-0.2056,-0.2056,-0.2066,-0.2064,-0.2063,-0.2058,-0.2054,-0.2057,-0.2044,-0.2043,-0.2049,-0.2073,-0.2034,-0.2034,-0.2094,-0.2096,-0.2098,-0.2142,0,0,0,0,0,0,-0.202,-0.2027,-0.2032,-0.2051,-0.2057,-0.2093,-0.2068,-0.2066,-0.2072,-0.2068,-0.2057,-0.2054,-0.2042,-0.2048,-0.205,-0.2074,-0.2035,-0.2092,-0.2095,-0.2097,-0.2139,-0.2146,-0.2151,0,0,0,0,0,-0.2018,-0.2032,-0.2033,-0.2038,-0.2065,-0.2094,-0.2097,-0.209,-0.2074,-0.2081,-0.2069,-0.2054,-0.2064,-0.205,-0.2051,-0.2076,-0.2091,-0.2094,-0.2097,-0.2137,-0.2144,-0.2151,0,0,0,0,0,0,-0.2002,-0.203,-0.2031,-0.2051,-0.2072,-0.2089,-0.2096,-0.2095,-0.2093,-0.2084,-0.2069,-0.2066,-0.2083,-0.2076,-0.206,-0.2102,-0.2077,-0.208,-0.2107,-0.2114,-0.212,-0.2107,-0.2036,0,0,0,0,0,-0.2005,-0.202,-0.2049,-0.2063,-0.2076,-0.2087,-0.2097,-0.2098,-0.2102,-0.2099,-0.2092,-0.209,-0.2101,-0.2101,-0.2108,-0.2131,-0.2115,-0.2149,-0.2155,-0.216,-0.2152,-0.2151,-0.2156,-0.2108,-0.2108,-0.2108,0,0,-0.2,-0.2019,-0.2026,-0.206,-0.2073,-0.2102,-0.2087,-0.2108,-0.2127,-0.21,-0.2112,-0.2111,-0.2112,-0.2135,-0.2143,-0.2128,-0.2168,-0.2163,-0.2168,-0.2156,-0.2155,-0.2159,-0.2163,-0.211,-0.211,-0.2109,0,0,-0.2008,-0.202,-0.204,-0.2065,-0.2096,-0.2109,-0.2117,-0.2139,-0.2142,-0.2164,-0.215,-0.2157,-0.2172,-0.2176,-0.2181,-0.2225,-0.2201,-0.2234,-0.225,-0.2251,-0.2254,-0.2257,-0.2251,-0.2253,-0.2234,-0.2235,-0.2235,0,-0.2001,-0.2031,-0.205,-0.2082,-0.2102,-0.2114,-0.2144,-0.216,-0.2178,-0.2187,-0.2171,-0.2195,-0.2193,-0.2223,-0.2232,-0.2238,-0.2228,-0.2223,-0.2257,-0.2259,-0.2261,-0.2255,-0.2256,-0.2237,-0.2237,-0.2236,-0.2236,0,-0.2031,-0.2055,-0.2071,-0.2113,-0.2141,-0.2166,-0.2199,-0.2217,-0.222,-0.2233,-0.2258,-0.2255,-0.2263,-0.2275,-0.2263,-0.2288,-0.2273,-0.2266,-0.2235,-0.2269,-0.226,-0.226,-0.2241,-0.224,-0.2239,-0.2238,0,0,-0.2002,-0.2077,-0.2078,-0.2103,-0.2158,-0.218,-0.2223,-0.2261,-0.2281,-0.2296,-0.2315,-0.2335,-0.2322,-0.2326,-0.2321,-0.2318,-0.2326,-0.2294,-0.2293,-0.2281,-0.232,-0.2224,-0.2215,-0.2322,-0.2322,-0.2322,-0.2311,0,-0.2013,-0.2072,-0.211,-0.2157,-0.2188,-0.2224,-0.2263,-0.23,-0.232,-0.2342,-0.2349,-0.2364,-0.2348,-0.2347,-0.2346,-0.2331,-0.2328,-0.2329,-0.2295,-0.2294,-0.2198,-0.2212,-0.2105,-0.2077,-0.2311,-0.2311,-0.2311,0,-0.2021,-0.2061,-0.2113,-0.218,-0.2197,-0.2228,-0.2281,-0.2317,-0.2361,-0.2377,-0.2394,-0.2396,-0.2403,-0.2378,-0.2367,-0.2367,-0.2342,-0.2328,-0.2327,-0.2216,-0.2198,-0.2081,-0.2069,-0.2036,-0.2311,-0.2311,-0.2311,0,-0.1979,-0.2056,-0.2092,-0.2116,-0.2199,-0.2224,-0.2259,-0.2317,-0.2346,-0.2387,-0.2404,-0.2421,-0.2419,-0.2401,-0.2365,-0.2367,-0.2339,-0.2343,-0.2239,-0.2232,-0.2121,-0.2103,-0.2061,-0.233,-0.233,-0.233,-0.233,0,-0.1968,-0.1993,-0.2072,-0.2091,-0.2128,-0.2197,-0.2234,-0.2277,-0.2335,-0.2358,-0.2403,-0.2417,-0.2421,-0.2407,-0.2374,-0.2295,-0.2347,-0.2233,-0.2218,-0.2134,-0.2118,-0.2067,-0.2089,-0.233,-0.233,-0.233,-0.233,0,-0.191,-0.1967,-0.2006,-0.2087,-0.2108,-0.2127,-0.2204,-0.2226,-0.2299,-0.2329,-0.234,-0.2408,-0.2386,-0.2376,-0.2345,-0.2294,-0.2188,-0.22,-0.2094,-0.2065,-0.1917,-0.1945,-0.1893,-0.184,-0.2083,-0.208,-0.2078,0,-0.1886,-0.19,-0.1974,-0.1982,-0.2012,-0.2056,-0.2079,-0.2178,-0.221,-0.231,-0.2313,-0.2336,-0.2317,-0.225,-0.2164,-0.2082,-0.2092,-0.1944,-0.1922,-0.1879,-0.1903,-0.1935,-0.1898,-0.1807,-0.1803,-0.18,-0.1797,0,-0.1817,-0.1841,-0.1863,-0.1892,-0.1915,-0.1952,-0.2002,-0.2029,-0.2136,-0.2177,-0.2218,-0.2217,-0.2166,-0.2035,-0.1937,-0.1881,-0.1878,-0.1868,-0.1858,-0.1699,-0.17,-0.1651,-0.1854,-0.1766,-0.177,-0.1772,-0.1773,-0.1775,-0.1736,-0.1733,-0.1761,-0.1775,-0.1803,-0.1825,-0.1809,-0.1882,-0.1921,-0.1946,-0.2035,-0.1992,-0.1922,-0.1762,-0.1702,-0.1554,-0.1644,-0.1502,-0.1548,-0.159,-0.1507,-0.1629,-0.15,-0.1501,-0.1503,-0.1504,-0.1505,0,-0.1628,-0.1633,-0.164,-0.1652,-0.1629,-0.1696,-0.173,-0.1696,-0.1687,-0.1745,-0.1741,-0.1678,-0.1536,-0.149,-0.1345,-0.1261,-0.1251,-0.124,-0.1277,-0.1259,-0.138,-0.1332,-0.1118,-0.1118,-0.1118,-0.1118,-0.1118,-0.1118,-0.1568,-0.1534,-0.1547,-0.1471,-0.1469,-0.1405,-0.1392,-0.1374,-0.1391,-0.135,-0.1343,-0.1368,-0.1344,-0.1346,-0.1204,-0.1133,-0.1123,-0.1075,-0.1124,-0.1226,-0.1255,-0.1283,-0.124,-0.1011,-0.1011,-0.0939,-0.0939,-0.0939]},{"header":{"parameterUnit":"m.s-1","parameterCategory":2,"la1":30.2991,"la2":30.254,"lo1":-89.0895,"lo2":-89.0444,"dy":0.0017,"dx":0.0017,"nx":28,"ny":28,"refTime":"2024-03-18T03:00:00:Z","depth":"0","parameterNumber":3,"parameterNumberName":"V-component_of_CURRENTS"},"data":[0,0,0,0,0,0,0,0,0,0,0,0,0,0,0,0,0,0,0,0,0,0,0,0,0,0,0,0,0,0,0,0,0,0,0,0,0,0,0,0,0,0,0,0,0,0,0,0,0,0,0,0,0,0,0,0,0,0,-0.0276,-0.0276,0,-0.0221,-0.022,-0.0219,-0.0178,-0.0177,-0.0177,-0.0177,-0.0098,-0.0096,-0.0094,0,0,0,0,0,0,0,0,0,0,0,0,0,-0.0317,-0.0316,-0.0276,-0.0276,-0.0275,-0.0221,-0.022,-0.0219,-0.0178,-0.0177,-0.0177,-0.0176,-0.0098,-0.0096,-0.0094,0,0,0,0,0,0,0,0,0,0,0,0,0,-0.0284,-0.0316,-0.0277,-0.0248,-0.0244,-0.0221,-0.022,-0.0219,-0.0178,-0.0177,-0.0177,-0.0176,-0.0099,-0.0097,-0.0094,-0.009,0,0,-0.0086,-0.0085,0,0,0,0,0,0,0,0,-0.0286,-0.0283,-0.0253,-0.025,-0.0246,-0.0205,-0.0205,-0.0174,-0.0178,-0.0203,-0.0177,-0.0176,-0.0132,-0.0127,-0.0118,-0.0086,-0.0083,-0.0086,-0.0084,-0.0083,-0.0082,0,0,0,0,0,0,0,-0.0288,-0.0285,-0.0254,-0.0252,-0.0248,-0.0227,-0.0222,-0.0199,-0.0171,-0.0201,-0.0198,-0.0192,-0.013,-0.0121,-0.0116,-0.0081,-0.0086,-0.0084,-0.0082,-0.0081,-0.0033,-0.0033,0,0,0,0,0,0,-0.0297,-0.0287,-0.0256,-0.0253,-0.0265,-0.0227,-0.0221,-0.0219,-0.0172,-0.0164,-0.0192,-0.019,-0.0125,-0.0119,-0.0113,-0.0101,-0.0083,-0.0081,-0.0079,-0.0032,-0.0033,-0.0033,0,0,0,0,0,0,-0.0298,-0.0295,-0.0258,-0.0268,-0.0262,-0.0227,-0.0225,-0.0218,-0.0207,-0.0165,-0.0157,-0.0187,-0.0125,-0.0116,-0.0091,-0.0098,-0.008,-0.0077,-0.0032,-0.0033,-0.0033,-0.0079,0,0,0,0,0,0,-0.03,-0.0296,-0.03,-0.0269,-0.0262,-0.025,-0.0225,-0.0218,-0.0204,-0.02,-0.0158,-0.0151,-0.0124,-0.0095,-0.0088,-0.0094,-0.0075,-0.0032,-0.0032,-0.0033,-0.0077,-0.0081,-0.0084,0,0,0,0,0,-0.0302,-0.031,-0.03,-0.0296,-0.0267,-0.025,-0.0245,-0.0217,-0.0204,-0.0204,-0.0172,-0.0152,-0.0094,-0.0093,-0.0085,-0.009,-0.0032,-0.0032,-0.0033,-0.0076,-0.008,-0.0084,0,0,0,0,0,0,-0.0329,-0.0306,-0.0294,-0.0295,-0.0276,-0.0243,-0.0241,-0.0222,-0.0197,-0.0193,-0.0152,-0.0143,-0.0125,-0.0101,-0.0102,-0.0078,-0.0061,-0.006,-0.0096,-0.01,-0.0103,-0.0113,-0.0073,0,0,0,0,0,-0.0338,-0.0339,-0.0311,-0.0312,-0.0305,-0.0274,-0.0264,-0.0246,-0.0219,-0.0208,-0.0178,-0.0147,-0.0122,-0.0106,-0.0083,-0.0068,-0.0034,-0.0066,-0.007,-0.0073,-0.0075,-0.0031,-0.0031,-0.0035,-0.0035,-0.0035,0,0,-0.0349,-0.0337,-0.0336,-0.0318,-0.0302,-0.03,-0.0267,-0.0256,-0.0252,-0.0203,-0.019,-0.016,-0.0122,-0.0106,-0.0096,-0.0085,-0.0053,-0.0074,-0.0077,-0.0077,-0.0032,-0.0032,-0.0031,-0.0036,-0.0036,-0.0035,0,0,-0.0377,-0.0361,-0.0374,-0.0361,-0.0341,-0.0321,-0.032,-0.029,-0.0273,-0.0255,-0.0221,-0.0192,-0.0157,-0.0127,-0.0108,-0.0117,-0.0076,-0.0114,-0.0136,-0.0093,-0.0092,-0.0091,-0.0044,-0.0039,-0.0113,-0.0114,-0.0114,0,-0.0393,-0.0404,-0.0375,-0.0383,-0.0377,-0.0334,-0.0345,-0.0323,-0.0288,-0.0275,-0.0259,-0.02,-0.0166,-0.0139,-0.0141,-0.0125,-0.0094,-0.0123,-0.0098,-0.0096,-0.0094,-0.0046,-0.0039,-0.0116,-0.0116,-0.0115,-0.0115,0,-0.0428,-0.0437,-0.0443,-0.044,-0.0428,-0.043,-0.0395,-0.0386,-0.0359,-0.0328,-0.0295,-0.0244,-0.0208,-0.0194,-0.0168,-0.0142,-0.0122,-0.011,-0.0088,-0.0096,-0.0045,-0.0037,-0.0119,-0.0118,-0.0118,-0.0117,0,0,-0.0465,-0.047,-0.0473,-0.0486,-0.0459,-0.0458,-0.0449,-0.0428,-0.0424,-0.0375,-0.0357,-0.0305,-0.0267,-0.0243,-0.0204,-0.0164,-0.0118,-0.0135,-0.0132,-0.009,-0.002,0.0031,0.0045,-0.0103,-0.0102,-0.0101,0.0012,0,-0.0505,-0.0542,-0.0525,-0.0555,-0.057,-0.0532,-0.0529,-0.0499,-0.0463,-0.0432,-0.0362,-0.0325,-0.0287,-0.0266,-0.0222,-0.0144,-0.0101,-0.015,-0.0017,-0.0013,0.0033,0.0055,0.0077,0.0182,0.002,0.0021,0.0022,0,-0.0548,-0.0567,-0.0606,-0.0621,-0.0623,-0.0627,-0.0616,-0.0604,-0.0543,-0.051,-0.0453,-0.0391,-0.0315,-0.0285,-0.0154,-0.0188,-0.0112,-0.005,-0.0044,0.0026,0.0054,0.0165,0.0203,0.0322,0.0035,0.0034,0.0033,0,-0.0597,-0.0625,-0.0661,-0.0664,-0.0667,-0.0677,-0.067,-0.0628,-0.0618,-0.0547,-0.0523,-0.0426,-0.0366,-0.0266,-0.0127,-0.0141,0.0023,0.0023,0.0141,0.0145,0.0202,0.021,0.0371,0.011,0.011,0.0109,0.0109,0,-0.0648,-0.0678,-0.069,-0.0712,-0.0753,-0.0725,-0.0747,-0.0727,-0.0679,-0.0659,-0.0561,-0.0514,-0.0359,-0.0243,-0.0132,0.0042,0.0026,0.0147,0.0181,0.0187,0.0192,0.0328,0.0377,0.0114,0.0113,0.0112,0.0111,0,-0.07,-0.0706,-0.0754,-0.0772,-0.0781,-0.0806,-0.0806,-0.0813,-0.0758,-0.0728,-0.0701,-0.0564,-0.0398,-0.0237,-0.005,0.0047,0.0287,0.0259,0.0262,0.0294,0.0504,0.0548,0.0743,0.0831,0.0405,0.0407,0.0409,0,-0.0731,-0.076,-0.0806,-0.0839,-0.0852,-0.0879,-0.0896,-0.0858,-0.0852,-0.0755,-0.0738,-0.0568,-0.043,-0.0124,0.0087,0.0312,0.0392,0.0445,0.0422,0.0535,0.0609,0.063,0.069,0.0482,0.0484,0.0486,0.0487,0,-0.0787,-0.08,-0.0839,-0.091,-0.0944,-0.0981,-0.0993,-0.0998,-0.0937,-0.0883,-0.0765,-0.0639,-0.0322,-0.0028,0.0266,0.0384,0.0546,0.0488,0.0606,0.0691,0.0723,0.0816,0.0389,0.0503,0.0501,0.05,0.0499,0.0499,-0.082,-0.0863,-0.0913,-0.0977,-0.1023,-0.1063,-0.1079,-0.1059,-0.1025,-0.091,-0.0783,-0.0553,-0.0141,0.0298,0.0447,0.0744,0.0709,0.0806,0.0854,0.0868,0.0947,0.0559,0.0707,0.0706,0.0706,0.0706,0.0705,0,-0.086,-0.0905,-0.0975,-0.1046,-0.11,-0.1108,-0.1128,-0.1105,-0.1045,-0.0887,-0.0725,-0.0252,0.0147,0.0507,0.0938,0.1093,0.1123,0.1157,0.1187,0.1235,0.0898,0.0896,0.1088,0.1088,0.1088,0.1088,0.1088,0.1087,-0.088,-0.0955,-0.0994,-0.1091,-0.1134,-0.1169,-0.117,-0.1112,-0.0995,-0.0707,-0.0423,-0.0188,0.0331,0.1012,0.1391,0.1412,0.1557,0.1533,0.1628,0.1379,0.1349,0.132,0.1331,0.1611,0.1611,0.194,0.1944,0.1946]}],[{"header":{"parameterUnit":"m.s-1","parameterCategory":2,"la1":30.2991,"la2":30.254,"lo1":-89.0895,"lo2":-89.0444,"dy":0.0017,"dx":0.0017,"nx":28,"ny":28,"refTime":"2024-03-18T03:00:00:Z","depth":"2","parameterNumber":2,"parameterNumberName":"U-component_of_CURRENTS"},"data":[0,0,0,0,0,0,0,0,0,0,0,0,0,0,0,0,0,0,0,0,0,0,0,0,0,0,0,0,0,0,0,0,0,0,0,0,0,0,0,0,0,0,0,0,0,0,0,0,0,0,0,0,0,0,0,0,0,0,-0.1885,-0.1885,0,-0.191,-0.191,-0.1911,-0.1886,-0.1885,-0.1885,-0.1884,-0.1872,-0.1873,-0.1873,0,0,0,0,0,0,0,0,0,0,0,0,0,-0.1828,-0.1829,-0.1885,-0.1885,-0.1886,-0.191,-0.191,-0.1911,-0.1886,-0.1885,-0.1884,-0.1883,-0.1872,-0.1873,-0.1873,0,0,0,0,0,0,0,0,0,0,0,0,0,-0.1851,-0.1829,-0.1884,-0.1878,-0.1878,-0.191,-0.191,-0.1911,-0.1886,-0.1885,-0.1884,-0.1883,-0.1872,-0.1873,-0.1873,-0.1901,0,0,-0.1875,-0.1876,0,0,0,0,0,0,0,0,-0.185,-0.1853,-0.1878,-0.1878,-0.1878,-0.1896,-0.1886,-0.1906,-0.1887,-0.1881,-0.1884,-0.1882,-0.1879,-0.1879,-0.1884,-0.1901,-0.19,-0.1875,-0.1876,-0.1876,-0.1876,0,0,0,0,0,0,0,-0.1848,-0.1852,-0.1893,-0.1879,-0.1879,-0.1878,-0.188,-0.189,-0.1884,-0.1881,-0.188,-0.1887,-0.1878,-0.1884,-0.1884,-0.19,-0.1875,-0.1876,-0.1876,-0.1877,-0.1936,-0.1937,0,0,0,0,0,0,-0.185,-0.1851,-0.1892,-0.1894,-0.1863,-0.1881,-0.1882,-0.189,-0.1885,-0.1884,-0.1888,-0.1885,-0.1883,-0.1883,-0.1883,-0.1915,-0.1876,-0.1877,-0.1877,-0.1934,-0.1936,-0.1937,0,0,0,0,0,0,-0.1849,-0.1853,-0.1891,-0.1874,-0.1879,-0.1883,-0.1891,-0.1891,-0.1893,-0.189,-0.1888,-0.189,-0.1882,-0.1882,-0.1891,-0.1914,-0.1877,-0.1878,-0.1933,-0.1935,-0.1936,-0.1978,0,0,0,0,0,0,-0.1847,-0.1853,-0.1858,-0.1874,-0.188,-0.1912,-0.1893,-0.1892,-0.19,-0.1897,-0.1892,-0.189,-0.1881,-0.189,-0.1891,-0.1914,-0.1878,-0.1931,-0.1934,-0.1936,-0.1975,-0.1981,-0.1986,0,0,0,0,0,-0.1845,-0.1855,-0.1858,-0.1863,-0.1887,-0.1913,-0.1916,-0.1913,-0.1902,-0.1909,-0.1902,-0.189,-0.1905,-0.1891,-0.1893,-0.1916,-0.193,-0.1933,-0.1936,-0.1973,-0.198,-0.1986,0,0,0,0,0,0,-0.1831,-0.1855,-0.1858,-0.1874,-0.1894,-0.1909,-0.1916,-0.1917,-0.192,-0.1914,-0.1903,-0.1901,-0.192,-0.1914,-0.1899,-0.194,-0.1917,-0.192,-0.1945,-0.1952,-0.1957,-0.1947,-0.1879,0,0,0,0,0,-0.1833,-0.1845,-0.1871,-0.1883,-0.1894,-0.1907,-0.1916,-0.192,-0.1926,-0.1926,-0.1923,-0.1924,-0.1936,-0.1938,-0.1945,-0.1967,-0.1951,-0.1984,-0.1989,-0.1994,-0.1988,-0.1987,-0.1991,-0.1946,-0.1946,-0.1946,0,0,-0.1829,-0.1845,-0.1851,-0.1881,-0.1893,-0.1919,-0.1908,-0.1928,-0.1947,-0.1926,-0.1943,-0.1944,-0.1946,-0.1969,-0.1977,-0.1964,-0.2001,-0.1997,-0.2001,-0.1992,-0.199,-0.1994,-0.1998,-0.1948,-0.1947,-0.1947,0,0,-0.1834,-0.1845,-0.1861,-0.1883,-0.1912,-0.1925,-0.1933,-0.1955,-0.1961,-0.1985,-0.1976,-0.1986,-0.2003,-0.2008,-0.2013,-0.2054,-0.2031,-0.2063,-0.2079,-0.208,-0.2083,-0.2086,-0.2076,-0.2078,-0.2063,-0.2063,-0.2063,0,-0.1829,-0.1854,-0.187,-0.1897,-0.1916,-0.193,-0.1957,-0.1974,-0.1995,-0.2005,-0.1994,-0.2022,-0.2022,-0.2051,-0.2062,-0.2066,-0.2056,-0.2054,-0.2085,-0.2088,-0.209,-0.2079,-0.2081,-0.2066,-0.2065,-0.2065,-0.2065,0,-0.1851,-0.1874,-0.1885,-0.1923,-0.1949,-0.1972,-0.2005,-0.2025,-0.2033,-0.2048,-0.2076,-0.2077,-0.2088,-0.21,-0.209,-0.2114,-0.2099,-0.2093,-0.2065,-0.2097,-0.2084,-0.2085,-0.2069,-0.2068,-0.2067,-0.2067,0,0,-0.1824,-0.1888,-0.1891,-0.1914,-0.1964,-0.1985,-0.2027,-0.2066,-0.2087,-0.2106,-0.2129,-0.215,-0.2142,-0.2147,-0.2144,-0.2143,-0.215,-0.2122,-0.2121,-0.2106,-0.2142,-0.2049,-0.2041,-0.2147,-0.2148,-0.2148,-0.2129,0,-0.1832,-0.1882,-0.1916,-0.1961,-0.1988,-0.2025,-0.2062,-0.21,-0.2124,-0.2149,-0.2159,-0.2178,-0.2165,-0.2168,-0.2168,-0.2157,-0.2152,-0.2155,-0.2119,-0.2117,-0.2026,-0.2038,-0.1885,-0.1847,-0.2129,-0.2129,-0.2129,0,-0.1836,-0.1871,-0.1918,-0.1981,-0.1997,-0.2028,-0.2082,-0.2117,-0.2164,-0.2183,-0.2203,-0.2208,-0.2219,-0.2197,-0.2188,-0.2189,-0.2164,-0.2151,-0.215,-0.2044,-0.2025,-0.1862,-0.1837,-0.2129,-0.2129,-0.2129,-0.2129,0,-0.1798,-0.1867,-0.1902,-0.1924,-0.2001,-0.2027,-0.2062,-0.212,-0.2148,-0.2193,-0.2211,-0.2232,-0.2233,-0.2217,-0.2184,-0.2188,-0.2159,-0.2164,-0.206,-0.2054,-0.1904,-0.1883,-0.2149,-0.2149,-0.2149,-0.2149,-0.2149,0,-0.1786,-0.1811,-0.1885,-0.1902,-0.194,-0.2004,-0.2042,-0.2086,-0.2143,-0.2164,-0.2212,-0.2222,-0.2236,-0.2222,-0.2192,-0.2115,-0.2165,-0.2054,-0.2039,-0.1915,-0.1896,-0.2124,-0.2122,-0.2148,-0.2148,-0.2148,-0.2148,0,-0.1733,-0.1786,-0.1824,-0.1901,-0.1922,-0.1944,-0.2017,-0.2039,-0.211,-0.2137,-0.2149,-0.2212,-0.2191,-0.2186,-0.2159,-0.211,-0.2059,-0.2018,-0.1864,-0.183,-0.1955,-0.1955,-0.1908,-0.1904,-0.1901,-0.1899,-0.1897,0,-0.171,-0.1724,-0.1797,-0.1807,-0.1837,-0.1882,-0.1905,-0.1998,-0.2026,-0.2113,-0.2114,-0.2135,-0.2107,-0.2046,-0.1969,-0.1892,-0.1972,-0.1715,-0.169,-0.1938,-0.1929,-0.1933,-0.1937,-0.1519,-0.1514,-0.1509,-0.1506,0,-0.1647,-0.1672,-0.1695,-0.1727,-0.1752,-0.1785,-0.1832,-0.1853,-0.1949,-0.1978,-0.1999,-0.1988,-0.1941,-0.1789,-0.1705,-0.165,-0.1716,-0.1627,-0.1922,-0.1599,-0.1568,-0.156,-0.1577,-0.147,-0.1473,-0.1476,-0.1478,-0.1479,-0.1576,-0.1576,-0.1605,-0.1623,-0.1651,-0.1666,-0.1647,-0.1703,-0.1723,-0.1723,-0.1802,-0.1721,-0.1713,-0.1488,-0.1403,-0.1341,-0.1465,-0.1402,-0.1416,-0.1435,-0.1388,-0.1353,-0.1206,-0.1208,-0.121,-0.1211,-0.1213,0,-0.1481,-0.1488,-0.1497,-0.1511,-0.149,-0.1552,-0.1572,-0.1526,-0.1489,-0.1504,-0.1477,-0.131,-0.1199,-0.12,-0.1033,-0.1001,-0.1014,-0.097,-0.0986,-0.1022,-0.1054,-0.0991,-0.0702,-0.07,-0.0699,-0.0698,0,0,-0.1428,-0.14,-0.141,-0.1342,-0.1342,-0.1277,-0.1256,-0.121,-0.1191,-0.1102,-0.1048,-0.1101,-0.1142,-0.091,-0.0863,-0.075,-0.0882,-0.0715,-0.1123,-0.1177,-0.1207,-0.1298,-0.1239,0,0,0,0,0]},{"header":{"parameterUnit":"m.s-1","parameterCategory":2,"la1":30.2991,"la2":30.254,"lo1":-89.0895,"lo2":-89.0444,"dy":0.0017,"dx":0.0017,"nx":28,"ny":28,"refTime":"2024-03-18T03:00:00:Z","depth":"2","parameterNumber":3,"parameterNumberName":"V-component_of_CURRENTS"},"data":[0,0,0,0,0,0,0,0,0,0,0,0,0,0,0,0,0,0,0,0,0,0,0,0,0,0,0,0,0,0,0,0,0,0,0,0,0,0,0,0,0,0,0,0,0,0,0,0,0,0,0,0,0,0,0,0,0,0,-0.0198,-0.0198,0,-0.0153,-0.0152,-0.0151,-0.0116,-0.0116,-0.0115,-0.0115,-0.0048,-0.0047,-0.0046,0,0,0,0,0,0,0,0,0,0,0,0,0,-0.0229,-0.0229,-0.0198,-0.0198,-0.0197,-0.0153,-0.0152,-0.0151,-0.0116,-0.0116,-0.0115,-0.0115,-0.0049,-0.0047,-0.0045,0,0,0,0,0,0,0,0,0,0,0,0,0,-0.0203,-0.0229,-0.0198,-0.0174,-0.0171,-0.0153,-0.0152,-0.0151,-0.0116,-0.0116,-0.0115,-0.0115,-0.0049,-0.0047,-0.0045,-0.0042,0,0,-0.0039,-0.0038,0,0,0,0,0,0,0,0,-0.0205,-0.0202,-0.0178,-0.0176,-0.0173,-0.0139,-0.0138,-0.0114,-0.0116,-0.0137,-0.0115,-0.0114,-0.0077,-0.0073,-0.0066,-0.0039,-0.0036,-0.0038,-0.0037,-0.0036,-0.0036,0,0,0,0,0,0,0,-0.0207,-0.0204,-0.018,-0.0178,-0.0174,-0.0157,-0.0152,-0.0134,-0.0111,-0.0135,-0.0133,-0.0128,-0.0075,-0.0068,-0.0064,-0.0035,-0.0038,-0.0037,-0.0035,-0.0034,0.0003,0.0003,0,0,0,0,0,0,-0.0214,-0.0206,-0.0182,-0.0179,-0.0188,-0.0157,-0.0152,-0.0151,-0.0111,-0.0105,-0.0128,-0.0126,-0.0072,-0.0066,-0.0061,-0.0052,-0.0036,-0.0034,-0.0033,0.0004,0.0003,0.0003,0,0,0,0,0,0,-0.0215,-0.0212,-0.0184,-0.0191,-0.0186,-0.0157,-0.0155,-0.015,-0.0141,-0.0106,-0.0099,-0.0124,-0.0071,-0.0064,-0.0043,-0.0049,-0.0033,-0.0031,0.0004,0.0003,0.0003,-0.0035,0,0,0,0,0,0,-0.0216,-0.0213,-0.0217,-0.0192,-0.0186,-0.0178,-0.0156,-0.015,-0.0139,-0.0135,-0.01,-0.0093,-0.007,-0.0047,-0.0041,-0.0046,-0.0029,0.0004,0.0004,0.0003,-0.0034,-0.0037,-0.004,0,0,0,0,0,-0.0217,-0.0226,-0.0217,-0.0214,-0.0191,-0.0178,-0.0174,-0.0151,-0.0139,-0.014,-0.0112,-0.0094,-0.0047,-0.0045,-0.0039,-0.0043,0.0005,0.0004,0.0003,-0.0032,-0.0036,-0.004,0,0,0,0,0,0,-0.0242,-0.0222,-0.0213,-0.0215,-0.02,-0.0172,-0.0172,-0.0155,-0.0134,-0.0131,-0.0096,-0.0087,-0.0074,-0.0053,-0.0053,-0.0034,-0.0019,-0.0019,-0.0049,-0.0052,-0.0055,-0.0063,-0.0028,0,0,0,0,0,-0.0249,-0.0251,-0.0228,-0.0231,-0.0225,-0.0199,-0.0191,-0.0176,-0.0154,-0.0144,-0.0119,-0.0093,-0.0072,-0.0058,-0.004,-0.0027,0.0003,-0.0026,-0.0029,-0.0032,-0.0034,0.0007,0.0007,0.0001,0.0001,0.0001,0,0,-0.0259,-0.0249,-0.025,-0.0236,-0.0223,-0.0223,-0.0193,-0.0186,-0.0183,-0.014,-0.0131,-0.0105,-0.0072,-0.0059,-0.0051,-0.0041,-0.0015,-0.0033,-0.0035,-0.0036,0.0006,0.0007,0.0008,0.0,0.0,0.0,0,0,-0.0286,-0.0272,-0.0285,-0.0275,-0.0259,-0.0242,-0.0242,-0.0217,-0.0203,-0.0189,-0.0159,-0.0134,-0.0106,-0.0079,-0.0063,-0.0071,-0.0036,-0.007,-0.0087,-0.0047,-0.0046,-0.0045,-0.0006,-0.0001,-0.0068,-0.0068,-0.0068,0,-0.03,-0.0312,-0.0287,-0.0295,-0.029,-0.0254,-0.0265,-0.0246,-0.0218,-0.0206,-0.0193,-0.0143,-0.0114,-0.0089,-0.0091,-0.0078,-0.0051,-0.0075,-0.0051,-0.0049,-0.0047,-0.0008,-0.0002,-0.007,-0.0069,-0.0069,-0.0069,0,-0.0334,-0.0343,-0.0349,-0.0348,-0.0338,-0.0342,-0.0312,-0.0305,-0.0282,-0.0254,-0.0226,-0.0182,-0.0151,-0.0139,-0.0116,-0.0091,-0.0075,-0.0062,-0.0041,-0.0049,-0.0007,0.0,-0.0072,-0.0072,-0.0071,-0.0071,0,0,-0.0369,-0.0375,-0.0378,-0.039,-0.0367,-0.0367,-0.036,-0.0342,-0.0339,-0.0297,-0.0281,-0.0235,-0.0202,-0.0181,-0.0146,-0.0108,-0.0067,-0.0083,-0.008,-0.0045,0.0021,0.0051,0.0062,-0.005,-0.0049,-0.0048,0.0045,0,-0.0406,-0.0441,-0.0426,-0.0454,-0.0469,-0.0435,-0.0432,-0.0406,-0.0374,-0.0349,-0.0285,-0.0254,-0.0219,-0.0201,-0.0159,-0.0091,-0.0051,-0.0094,0.0023,0.0026,0.0054,0.007,0.0042,0.0125,0.0052,0.0053,0.0054,0,-0.0447,-0.0465,-0.0501,-0.0514,-0.0516,-0.0522,-0.0512,-0.0502,-0.0448,-0.0418,-0.0367,-0.0312,-0.0244,-0.0217,-0.0099,-0.0128,-0.0061,-0.0005,-0.0,0.0046,0.0069,0.012,0.0141,0.0066,0.0065,0.0064,0.0063,0,-0.0491,-0.0519,-0.0552,-0.0554,-0.0558,-0.0567,-0.0562,-0.0525,-0.0516,-0.0453,-0.0433,-0.0344,-0.0294,-0.0201,-0.008,-0.0089,0.0052,0.0058,0.0149,0.0152,0.016,0.0163,0.0137,0.0137,0.0137,0.0137,0.0136,0,-0.0539,-0.0567,-0.0578,-0.0599,-0.0638,-0.0612,-0.0634,-0.0616,-0.0573,-0.0558,-0.0469,-0.0432,-0.0287,-0.0187,-0.0086,0.006,0.0053,0.0152,0.0181,0.0146,0.0146,0.0118,0.0115,0.014,0.0139,0.0139,0.0138,0,-0.0586,-0.0592,-0.0637,-0.0655,-0.0664,-0.0688,-0.0689,-0.0697,-0.0648,-0.0624,-0.0602,-0.0483,-0.0342,-0.0197,-0.003,0.0057,0.0189,0.0239,0.0191,0.0212,0.0261,0.0254,0.0349,0.0351,0.0353,0.0354,0.0355,0,-0.0615,-0.0642,-0.0687,-0.0717,-0.073,-0.0757,-0.0774,-0.074,-0.0735,-0.0656,-0.0642,-0.0501,-0.0389,-0.0126,0.0057,0.0252,0.0243,0.0327,0.0308,0.0266,0.0284,0.0275,0.0266,0.0306,0.0307,0.0307,0.0308,0,-0.0667,-0.0681,-0.0716,-0.0784,-0.0817,-0.0852,-0.0865,-0.087,-0.0816,-0.0773,-0.0682,-0.0581,-0.0321,-0.0093,0.0161,0.0259,0.0295,0.0345,0.0324,0.0254,0.0232,0.0247,0.0239,0.0312,0.0312,0.0311,0.0311,0.0311,-0.0699,-0.074,-0.0787,-0.0847,-0.0891,-0.0929,-0.0943,-0.0928,-0.0903,-0.0805,-0.0713,-0.0529,-0.0319,0.0061,0.023,0.0381,0.0371,0.0399,0.0395,0.039,0.0366,0.0348,0.0445,0.0446,0.0446,0.0446,0.0446,0,-0.0737,-0.078,-0.0846,-0.0912,-0.0963,-0.0972,-0.099,-0.0968,-0.092,-0.0794,-0.067,-0.0419,-0.0163,0.0058,0.0312,0.0454,0.0427,0.0464,0.0402,0.0397,0.0392,0.0365,0.0446,0.0446,0.0447,0.0448,0,0,-0.0757,-0.0827,-0.0863,-0.0953,-0.0995,-0.103,-0.103,-0.0976,-0.0879,-0.0733,-0.0579,-0.0393,-0.0134,0.0047,0.022,0.0351,0.0334,0.0352,0.0334,0.0235,0.0229,0.0334,0.0284,0,0,0,0,0]}],[{"header":{"parameterUnit":"m.s-1","parameterCategory":2,"la1":30.2991,"la2":30.254,"lo1":-89.0895,"lo2":-89.0444,"dy":0.0017,"dx":0.0017,"nx":28,"ny":28,"refTime":"2024-03-18T03:00:00:Z","depth":"4","parameterNumber":2,"parameterNumberName":"U-component_of_CURRENTS"},"data":[0,0,0,0,0,0,0,0,0,0,0,0,0,0,0,0,0,0,0,0,0,0,0,0,0,0,0,0,0,0,0,0,0,0,0,0,0,0,0,0,0,0,0,0,0,0,0,0,0,0,0,0,0,0,0,0,0,0,-0.1348,-0.1348,0,-0.1399,-0.14,-0.14,-0.1427,-0.1428,-0.1428,-0.1428,-0.147,-0.1471,-0.1472,0,0,0,0,0,0,0,0,0,0,0,0,0,-0.1281,-0.1282,-0.1348,-0.1349,-0.1349,-0.1399,-0.14,-0.14,-0.1427,-0.1428,-0.1428,-0.1428,-0.147,-0.1471,-0.1472,0,0,0,0,0,0,0,0,0,0,0,0,0,-0.1318,-0.1282,-0.1348,-0.137,-0.1372,-0.1399,-0.14,-0.1401,-0.1427,-0.1428,-0.1428,-0.1428,-0.1469,-0.1471,-0.1472,-0.1477,0,0,-0.1477,-0.1477,0,0,0,0,0,0,0,0,-0.1315,-0.132,-0.1366,-0.1368,-0.1371,-0.1408,-0.1392,-0.1426,-0.1427,-0.1405,-0.1428,-0.1428,-0.1449,-0.1452,-0.146,-0.1479,-0.1481,-0.1477,-0.1478,-0.1478,-0.1479,0,0,0,0,0,0,0,-0.1313,-0.1318,-0.1367,-0.1366,-0.137,-0.138,-0.1385,-0.1398,-0.1424,-0.1407,-0.1409,-0.1417,-0.145,-0.1458,-0.1461,-0.1481,-0.1477,-0.1478,-0.1479,-0.148,-0.1563,-0.1564,0,0,0,0,0,0,-0.1308,-0.1315,-0.1365,-0.1369,-0.1345,-0.1381,-0.1387,-0.1395,-0.1424,-0.1429,-0.1417,-0.1418,-0.1456,-0.1459,-0.1463,-0.1525,-0.1478,-0.148,-0.1481,-0.1562,-0.1563,-0.1565,0,0,0,0,0,0,-0.1307,-0.1312,-0.1363,-0.1344,-0.1351,-0.1382,-0.1391,-0.1396,-0.1425,-0.1432,-0.1437,-0.1443,-0.1456,-0.1461,-0.1494,-0.1524,-0.148,-0.1482,-0.156,-0.1562,-0.1564,-0.1613,0,0,0,0,0,0,-0.1305,-0.1311,-0.1328,-0.1344,-0.1352,-0.1393,-0.1391,-0.1397,-0.1429,-0.1431,-0.1456,-0.1459,-0.1457,-0.1492,-0.1495,-0.1526,-0.1483,-0.1558,-0.1561,-0.1563,-0.161,-0.1617,-0.1623,0,0,0,0,0,-0.1302,-0.1317,-0.1328,-0.1335,-0.137,-0.1394,-0.14,-0.142,-0.143,-0.1447,-0.1465,-0.1459,-0.151,-0.1494,-0.1498,-0.1529,-0.1557,-0.156,-0.1563,-0.1607,-0.1615,-0.1622,0,0,0,0,0,0,-0.1297,-0.1322,-0.1334,-0.1358,-0.1382,-0.1399,-0.142,-0.1434,-0.1462,-0.1471,-0.1474,-0.1479,-0.152,-0.1518,-0.15,-0.1561,-0.1533,-0.1537,-0.1566,-0.1574,-0.158,-0.1569,-0.1484,0,0,0,0,0,-0.1304,-0.1322,-0.1347,-0.1368,-0.1382,-0.1406,-0.1423,-0.144,-0.1461,-0.1475,-0.1492,-0.1512,-0.1532,-0.1548,-0.1563,-0.1595,-0.1578,-0.1619,-0.1625,-0.1631,-0.1625,-0.1627,-0.1633,-0.1574,-0.1574,-0.1574,0,0,-0.1309,-0.1324,-0.1337,-0.1369,-0.1389,-0.1416,-0.1417,-0.1451,-0.148,-0.1474,-0.1524,-0.1536,-0.1546,-0.1584,-0.1602,-0.1588,-0.1639,-0.1634,-0.1639,-0.163,-0.1631,-0.1636,-0.1641,-0.1576,-0.1576,-0.1576,0,0,-0.1319,-0.1342,-0.1361,-0.1385,-0.1421,-0.1438,-0.1453,-0.1487,-0.1511,-0.1554,-0.1559,-0.1588,-0.1624,-0.1634,-0.1643,-0.1693,-0.1672,-0.1707,-0.1731,-0.1734,-0.1739,-0.1742,-0.1729,-0.1731,-0.171,-0.171,-0.171,0,-0.1327,-0.1352,-0.1372,-0.1397,-0.1422,-0.145,-0.1481,-0.1509,-0.1552,-0.1573,-0.1578,-0.1634,-0.1645,-0.1683,-0.1701,-0.1707,-0.1698,-0.1701,-0.1741,-0.1744,-0.1747,-0.1732,-0.1734,-0.1713,-0.1713,-0.1712,-0.1712,0,-0.1344,-0.1377,-0.1391,-0.1433,-0.1463,-0.1494,-0.1533,-0.157,-0.1604,-0.1627,-0.168,-0.1695,-0.1723,-0.1739,-0.1736,-0.177,-0.1753,-0.1748,-0.1718,-0.1756,-0.1738,-0.1739,-0.1717,-0.1716,-0.1715,-0.1714,0,0,-0.1325,-0.1391,-0.1399,-0.1429,-0.1487,-0.151,-0.1566,-0.1616,-0.1651,-0.1696,-0.1735,-0.1776,-0.1782,-0.1791,-0.1797,-0.1802,-0.1818,-0.1787,-0.1786,-0.1766,-0.1814,-0.168,-0.1667,-0.1821,-0.1821,-0.1822,-0.1794,0,-0.1335,-0.1386,-0.1421,-0.1479,-0.1509,-0.1558,-0.1605,-0.1656,-0.1699,-0.1742,-0.1768,-0.1806,-0.1803,-0.1821,-0.1828,-0.1822,-0.1822,-0.1825,-0.1786,-0.1785,-0.1655,-0.1664,-0.1823,-0.1794,-0.1794,-0.1794,-0.1795,0,-0.1334,-0.1372,-0.143,-0.1504,-0.1523,-0.1567,-0.1643,-0.1686,-0.175,-0.1783,-0.1822,-0.1839,-0.1865,-0.1853,-0.1854,-0.1858,-0.1838,-0.1827,-0.1825,-0.1678,-0.165,-0.175,-0.1795,-0.1795,-0.1795,-0.1795,-0.1795,0,-0.1295,-0.1375,-0.1423,-0.1449,-0.1537,-0.158,-0.1629,-0.1701,-0.1737,-0.1805,-0.183,-0.1868,-0.1882,-0.1875,-0.1851,-0.1859,-0.1833,-0.184,-0.1699,-0.169,-0.1798,-0.1795,-0.183,-0.183,-0.1831,-0.1831,-0.1831,0,-0.1275,-0.1316,-0.1415,-0.1439,-0.1499,-0.1568,-0.1629,-0.1684,-0.1752,-0.1776,-0.1841,-0.1848,-0.1889,-0.1878,-0.1856,-0.1763,-0.1835,-0.1691,-0.1669,-0.1821,-0.182,-0.1798,-0.1795,-0.183,-0.183,-0.183,-0.183,0,-0.1217,-0.1284,-0.1343,-0.1447,-0.1481,-0.1522,-0.1619,-0.1649,-0.173,-0.176,-0.178,-0.184,-0.1815,-0.1826,-0.1807,-0.1746,-0.1689,-0.1639,-0.1787,-0.1777,-0.1546,-0.1546,-0.1481,-0.1475,-0.1471,-0.1468,-0.1465,0,-0.1188,-0.1214,-0.133,-0.1359,-0.1411,-0.1483,-0.152,-0.1622,-0.1647,-0.1725,-0.1719,-0.174,-0.1755,-0.1614,-0.1649,-0.1587,-0.1568,-0.1535,-0.1549,-0.1522,-0.1509,-0.1516,-0.1521,-0.1458,-0.1457,-0.1455,-0.1454,0,-0.1125,-0.1179,-0.1222,-0.129,-0.1343,-0.1389,-0.1453,-0.146,-0.1551,-0.1643,-0.1599,-0.1572,-0.1538,-0.1513,-0.147,-0.1433,-0.1557,-0.149,-0.1499,-0.1512,-0.1494,-0.1486,-0.1497,-0.1439,-0.1442,-0.1443,-0.1444,0,-0.107,-0.1086,-0.1151,-0.1195,-0.1257,-0.1268,-0.1319,-0.1334,-0.137,-0.1462,-0.1437,-0.1455,-0.1511,-0.143,-0.1392,-0.1339,-0.1324,-0.1286,-0.1306,-0.1323,-0.1282,-0.1237,-0.1071,0,0,0,0,0,-0.1006,-0.1011,-0.1047,-0.1088,-0.1142,-0.1177,-0.1257,-0.1307,-0.1397,-0.132,-0.1375,-0.133,-0.1268,-0.1289,-0.1199,-0.1326,-0.1337,-0.1218,-0.1306,-0.1357,-0.1374,-0.1341,0,0,0,0,0,0,-0.0962,-0.0994,-0.101,-0.0985,-0.0986,-0.1031,-0.1073,-0.1136,-0.1107,-0.1198,-0.1169,-0.1238,-0.1201,-0.1284,-0.1165,-0.1169,-0.1194,-0.1242,-0.1238,-0.1347,-0.1362,-0.1376,-0.1348,0,0,0,0,0]},{"header":{"parameterUnit":"m.s-1","parameterCategory":2,"la1":30.2991,"la2":30.254,"lo1":-89.0895,"lo2":-89.0444,"dy":0.0017,"dx":0.0017,"nx":28,"ny":28,"refTime":"2024-03-18T03:00:00:Z","depth":"4","parameterNumber":3,"parameterNumberName":"V-component_of_CURRENTS"},"data":[0,0,0,0,0,0,0,0,0,0,0,0,0,0,0,0,0,0,0,0,0,0,0,0,0,0,0,0,0,0,0,0,0,0,0,0,0,0,0,0,0,0,0,0,0,0,0,0,0,0,0,0,0,0,0,0,0,0,-0.0129,-0.0129,0,-0.0103,-0.0103,-0.0103,-0.008,-0.008,-0.0079,-0.0079,-0.0035,-0.0034,-0.0033,0,0,0,0,0,0,0,0,0,0,0,0,0,-0.0142,-0.0142,-0.0129,-0.0129,-0.0128,-0.0103,-0.0103,-0.0103,-0.008,-0.008,-0.0079,-0.0079,-0.0035,-0.0034,-0.0033,0,0,0,0,0,0,0,0,0,0,0,0,0,-0.0128,-0.0142,-0.0129,-0.0114,-0.0113,-0.0103,-0.0103,-0.0102,-0.008,-0.008,-0.0079,-0.0079,-0.0035,-0.0034,-0.0032,-0.0031,0,0,-0.0028,-0.0027,0,0,0,0,0,0,0,0,-0.0129,-0.0128,-0.0117,-0.0115,-0.0113,-0.0094,-0.0091,-0.0078,-0.008,-0.0092,-0.0079,-0.0079,-0.0053,-0.005,-0.0046,-0.0029,-0.0027,-0.0028,-0.0027,-0.0026,-0.0026,0,0,0,0,0,0,0,-0.013,-0.0128,-0.0119,-0.0116,-0.0114,-0.0103,-0.0101,-0.0088,-0.0075,-0.0091,-0.009,-0.0087,-0.0052,-0.0048,-0.0045,-0.0027,-0.0028,-0.0027,-0.0026,-0.0025,-0.0003,-0.0004,0,0,0,0,0,0,-0.0134,-0.0129,-0.012,-0.0118,-0.012,-0.0103,-0.0101,-0.0101,-0.0075,-0.0071,-0.0087,-0.0086,-0.005,-0.0047,-0.0043,-0.0039,-0.0027,-0.0025,-0.0024,-0.0003,-0.0003,-0.0004,0,0,0,0,0,0,-0.0135,-0.0134,-0.0121,-0.0123,-0.012,-0.0103,-0.0104,-0.0101,-0.0096,-0.0072,-0.0068,-0.0086,-0.005,-0.0045,-0.0032,-0.0037,-0.0025,-0.0023,-0.0003,-0.0003,-0.0004,-0.0032,0,0,0,0,0,0,-0.0135,-0.0134,-0.0139,-0.0123,-0.012,-0.012,-0.0104,-0.01,-0.0095,-0.0093,-0.007,-0.0066,-0.0049,-0.0035,-0.0031,-0.0035,-0.0022,-0.0002,-0.0003,-0.0003,-0.003,-0.0033,-0.0035,0,0,0,0,0,-0.0136,-0.0144,-0.0139,-0.0138,-0.0126,-0.012,-0.0118,-0.0104,-0.0096,-0.0098,-0.0079,-0.0066,-0.0035,-0.0034,-0.0029,-0.0033,-0.0002,-0.0003,-0.0003,-0.0029,-0.0032,-0.0035,0,0,0,0,0,0,-0.0152,-0.0142,-0.0136,-0.0141,-0.0133,-0.0117,-0.0119,-0.0108,-0.0095,-0.0093,-0.0068,-0.0062,-0.0055,-0.004,-0.0039,-0.0029,-0.0018,-0.0017,-0.0039,-0.0041,-0.0044,-0.005,-0.0021,0,0,0,0,0,-0.0158,-0.0163,-0.0149,-0.0154,-0.0152,-0.0136,-0.0132,-0.0123,-0.0109,-0.0103,-0.0087,-0.0069,-0.0055,-0.0045,-0.0034,-0.0025,-0.0003,-0.0026,-0.0028,-0.003,-0.0033,0.0001,0.0002,-0.0006,-0.0006,-0.0006,0,0,-0.0166,-0.0162,-0.0164,-0.0158,-0.0151,-0.0154,-0.0133,-0.0131,-0.0131,-0.01,-0.0097,-0.0079,-0.0056,-0.0048,-0.0043,-0.0035,-0.0017,-0.0031,-0.0033,-0.0034,0.0001,0.0002,0.0003,-0.0006,-0.0006,-0.0006,0,0,-0.0188,-0.018,-0.0193,-0.0187,-0.018,-0.0171,-0.0171,-0.0158,-0.0149,-0.0142,-0.012,-0.0102,-0.0085,-0.0065,-0.0052,-0.0061,-0.0034,-0.0061,-0.0074,-0.004,-0.0039,-0.0038,-0.0012,-0.0008,-0.0058,-0.0058,-0.0058,0,-0.0199,-0.0211,-0.0195,-0.0204,-0.0203,-0.018,-0.0191,-0.018,-0.0163,-0.0156,-0.0147,-0.0113,-0.0092,-0.0072,-0.0075,-0.0066,-0.0046,-0.0064,-0.0043,-0.0041,-0.0039,-0.0013,-0.0008,-0.006,-0.006,-0.0059,-0.0059,0,-0.0226,-0.0237,-0.0243,-0.0247,-0.0243,-0.0249,-0.023,-0.0228,-0.0214,-0.0195,-0.0177,-0.0144,-0.0122,-0.0112,-0.0095,-0.0075,-0.0065,-0.0052,-0.0035,-0.004,-0.0012,-0.0007,-0.0062,-0.0061,-0.0061,-0.0061,0,0,-0.0252,-0.0263,-0.0266,-0.0278,-0.0266,-0.0269,-0.0268,-0.0259,-0.026,-0.0231,-0.0221,-0.0187,-0.0162,-0.0146,-0.0118,-0.0087,-0.0055,-0.0067,-0.0065,-0.0041,0.0014,0.0008,0.0014,-0.0038,-0.0037,-0.0036,0.0027,0,-0.0281,-0.0313,-0.0305,-0.0332,-0.0345,-0.0325,-0.0327,-0.0311,-0.029,-0.0275,-0.0224,-0.0204,-0.0175,-0.0163,-0.0127,-0.0074,-0.0042,-0.0074,0.0014,0.0017,0.0014,0.0019,-0.0034,0.0031,0.0033,0.0033,0.0034,0,-0.0312,-0.0329,-0.0363,-0.038,-0.0384,-0.0394,-0.0394,-0.0391,-0.0354,-0.0333,-0.0293,-0.0253,-0.0199,-0.0176,-0.0081,-0.0103,-0.0051,-0.0007,-0.0003,0.0005,0.0021,0.0039,0.0044,0.0043,0.0043,0.0042,0.0041,0,-0.0342,-0.0371,-0.0402,-0.0406,-0.0418,-0.0432,-0.0434,-0.0411,-0.0407,-0.0364,-0.0352,-0.028,-0.0244,-0.0167,-0.0075,-0.0077,0.0028,0.004,0.0085,0.0085,0.0084,0.0082,0.0104,0.0103,0.0103,0.0103,0.0103,0,-0.0373,-0.0401,-0.0424,-0.0442,-0.0482,-0.0467,-0.0495,-0.0485,-0.0459,-0.045,-0.0383,-0.0357,-0.024,-0.0166,-0.0083,0.0016,0.0025,0.0083,0.0102,0.0069,0.0065,0.0087,0.0085,0.0105,0.0105,0.0105,0.0104,0,-0.04,-0.0415,-0.0458,-0.0487,-0.0501,-0.0527,-0.0543,-0.0553,-0.0523,-0.0509,-0.0494,-0.0406,-0.0304,-0.0192,-0.006,0.0001,0.0099,0.0131,0.0082,0.0098,0.0136,0.0131,0.0189,0.0189,0.0189,0.019,0.019,0,-0.0417,-0.0441,-0.0498,-0.0531,-0.055,-0.0584,-0.0606,-0.0589,-0.0587,-0.0539,-0.0528,-0.0433,-0.0364,-0.0178,-0.0064,0.0094,0.0114,0.016,0.0153,0.0132,0.0146,0.014,0.0135,0.019,0.019,0.019,0.019,0,-0.0446,-0.047,-0.0505,-0.0575,-0.0616,-0.0654,-0.0676,-0.0676,-0.0644,-0.0623,-0.0542,-0.0439,-0.0325,-0.0177,-0.0055,0.0056,0.0129,0.0164,0.0164,0.0158,0.0135,0.0147,0.0141,0.0192,0.0191,0.0191,0.0191,0,-0.0466,-0.0501,-0.0553,-0.061,-0.0667,-0.07,-0.071,-0.0691,-0.0677,-0.0607,-0.0583,-0.0451,-0.0367,-0.0197,-0.0086,0.0025,0.0053,0.0083,0.0088,0.0088,0.0039,-0.0006,0.0026,0,0,0,0,0,-0.0479,-0.052,-0.0582,-0.0642,-0.0698,-0.0724,-0.0745,-0.0738,-0.0706,-0.0651,-0.0609,-0.0497,-0.0314,-0.0232,-0.012,-0.0093,0.0058,0.0039,0.0092,0.0198,0.0196,0.0155,0,0,0,0,0,0,-0.0489,-0.0549,-0.0581,-0.0653,-0.0695,-0.0746,-0.0757,-0.0737,-0.0692,-0.0646,-0.0543,-0.0479,-0.0299,-0.0375,-0.012,-0.0087,-0.0041,0.013,0.0132,0.0198,0.0197,0.0196,0.0153,0,0,0,0,0]}]]